SKYNET 4E

Last updated on Thu Nov 21 2024 00:02:40 GMT+0000 (Coordinated Universal Time)

1 25639U 99009B 24324.34285464 -.00000037 00000+0 00000+0 0 9992 2 25639 11.7223 12.2433 0003419 228.2533 300.5328 1.00272480 45419
UTC large
Height (km)
Speed (km/s)
/
Latitude / Longitude
Inclination (degrees)
Orbital Period (minutes)
Azimuth
Elevation
Range (km)
Doppler Factor

Next 0 passes for location: London (51.5072 / 0.1276)

Sorry there are no passes over London.